Regional Weather Roundup
Issued by NWS Spokane, WA

Home | Current Version | Previous Version | Text Only | Print | Product List | Glossary On
Versions: 1 2 3 4 5 6 7 8 9 10 11 12 13 14 15 16 17 18 19 20 21 22 23 24 25 26 27 28 29 30 31 32 33 34 35 36 37 38 39 40 41 42 43 44 45 46 47 48 49 50
000
NZUS01 KOTX 160310
RWROTX
EASTERN WASHINGTON/NORTHERN IDAHO ROUNDUP
NATIONAL WEATHER SERVICE, SPOKANE WA
800 PM PDT MON SEP 15 2014

Note: "fair" indicated few or no clouds below 12,000 feet with no
significant weather and/or obstructions to visibility.

...NORTHEAST WASHINGTON AND NORTHERN IDAHO PANHANDLE...

CITY           SKY/WX    TMP DP  RH WIND       PRES   REMARKS
SPOKANE INTL   MOCLDY    74  29  19 NE3       29.92S
SPOKANE DOWNTO PTCLDY    68  36  30 E3        29.91S
COEUR D ALENE  CLEAR     63  36  36 NE7       29.93R
DEER PARK      PTCLDY    62  36  37 NE5       29.92S
SANDPOINT      CLEAR     54  45  71 CALM      29.94S

...SOUTHEAST WASHINGTON AND SOUTHERN IDAHO PANHANDLE...

CITY           SKY/WX    TMP DP  RH WIND       PRES   REMARKS
WALLA WALLA    MOCLDY    72  41  32 SE6       29.86S
PULLMAN/MOSCOW PTCLDY    68  26  20 CALM      29.93R
LEWISTON       MOCLDY    77  30  17 S6        29.84R
LOWELL           N/A     61  52  72 N3        29.90R

...COLUMBIA BASIN...

CITY           SKY/WX    TMP DP  RH WIND       PRES   REMARKS
EPHRATA        MOCLDY    73  37  27 W3        29.85S
MOSES LAKE     MOCLDY    74  36  25 W8        29.85F
TRI CITIES     MOCLDY    65  54  67 N8        29.80F
HERMISTON      MOCLDY    68  42  38 W3        29.82R
PENDLETON      MOCLDY    70  32  24 NE6       29.85S

...EAST SLOPES CASCADES...

CITY           SKY/WX    TMP DP  RH WIND       PRES   REMARKS
THE DALLES     PTCLDY    74  31  20 E6        29.80S
YAKIMA         CLOUDY    65  45  48 CALM      29.86S
ELLENSBURG     MOCLDY    64  42  44 CALM      29.89R
STAMPEDE PASS  PTCLDY    64  31  28 VRB5      30.00
WENATCHEE      MOCLDY    75  35  23 CALM      29.86S
OMAK           CLEAR     64  34  32 SW5       29.87R

...SOUTHERN BRITISH COLUMBIA...

CITY           SKY/WX    TMP DP  RH WIND       PRES   REMARKS
PENTICTON      CLEAR     59  41  51 NE3       29.87R
CASTLEGAR      CLEAR     59  46  63 CALM      29.92R

...WESTERN MONTANA...

CITY           SKY/WX    TMP DP  RH WIND       PRES   REMARKS
MISSOULA       CLEAR     66  32  28 CALM      30.00R

...NEIGHBORING CITIES...

CITY           SKY/WX    TMP DP  RH WIND       PRES   REMARKS
SEATTLE        MOCLDY    72  45  37 NW3       29.81R
CALGARY        PTCLDY    61  43  51 SE8       30.00R



USA.gov is the U.S. government's official web portal to all federal, state and local government web resources and services.